| time (UTC) | temp F | wind direction | speed MPH | gust MPH | rain 1hr in | rain 24hr in | rain mn in | humidity % | barometer mb |
| 20260505232858 | 47 | 233 | 1.0 | 5.0 | 0.00 | 0.35 | 0.00 | 89 | 1009.3 |
| 20260505232648 | 47 | 229 | 2.0 | 5.0 | 0.00 | 0.35 | 0.00 | 89 | 1009.2 |
| 20260505232445 | 47 | 226 | 2.0 | 7.0 | 0.00 | 0.35 | 0.00 | 89 | 1009.3 |
| 20260505232235 | 47 | 213 | 2.0 | 7.0 | 0.00 | 0.35 | 0.00 | 89 | 1009.2 |
| 20260505231715 | 47 | 210 | 3.0 | 7.0 | 0.00 | 0.35 | 0.00 | 89 | 1009.3 |
| 20260505231152 | 47 | 221 | 3.0 | 7.0 | 0.00 | 0.35 | 0.00 | 89 | 1009.3 |
| 20260505230954 | 47 | 256 | 2.0 | 7.0 | 0.00 | 0.35 | 0.00 | 89 | 1009.3 |
| 20260505230426 | 47 | 200 | 2.0 | 6.0 | 0.00 | 0.35 | 0.00 | 89 | 1009.3 |
| 20260505225545 | 47 | 229 | 2.0 | 6.0 | 0.00 | 0.35 | 0.00 | 89 | 1009.5 |
| 20260505225340 | 47 | 226 | 2.0 | 6.0 | 0.00 | 0.35 | 0.00 | 89 | 1009.6 |
| 20260505225135 | 47 | 240 | 2.0 | 10.0 | 0.00 | 0.35 | 0.00 | 89 | 1009.6 |
| 20260505224935 | 47 | 248 | 3.0 | 10.0 | 0.00 | 0.35 | 0.00 | 89 | 1009.6 |
| 20260505224735 | 47 | 196 | 3.0 | 10.0 | 0.00 | 0.35 | 0.00 | 89 | 1009.7 |
| 20260505224531 | 47 | 245 | 3.0 | 10.0 | 0.00 | 0.35 | 0.00 | 89 | 1009.8 |
| 20260505224326 | 47 | 238 | 3.0 | 10.0 | 0.00 | 0.35 | 0.00 | 89 | 1009.7 |
| 20260505224123 | 48 | 217 | 4.0 | 10.0 | 0.00 | 0.35 | 0.00 | 89 | 1009.7 |
| 20260505223917 | 48 | 236 | 4.0 | 10.0 | 0.00 | 0.35 | 0.00 | 88 | 1009.8 |
| 20260505223716 | 48 | 210 | 4.0 | 10.0 | 0.00 | 0.35 | 0.00 | 88 | 1009.7 |
| 20260505223506 | 48 | 239 | 4.0 | 10.0 | 0.00 | 0.35 | 0.00 | 88 | 1009.7 |
| 20260505222627 | 48 | 131 | 3.0 | 7.0 | 0.00 | 0.35 | 0.00 | 87 | 1009.7 |
| 20260505222419 | 48 | 203 | 3.0 | 7.0 | 0.00 | 0.35 | 0.00 | 87 | 1009.8 |
| 20260505222211 | 48 | 205 | 3.0 | 6.0 | 0.00 | 0.35 | 0.00 | 87 | 1009.7 |
| 20260505221647 | 48 | 226 | 3.0 | 6.0 | 0.00 | 0.35 | 0.00 | 88 | 1009.8 |
| 20260505221442 | 48 | 211 | 3.0 | 6.0 | 0.00 | 0.35 | 0.00 | 88 | 1009.8 |
| 20260505221241 | 48 | 212 | 3.0 | 6.0 | 0.00 | 0.35 | 0.00 | 87 | 1009.8 |
| 20260505221039 | 48 | 207 | 3.0 | 6.0 | 0.00 | 0.35 | 0.00 | 87 | 1009.7 |
| 20260505220520 | 48 | 219 | 3.0 | 7.0 | 0.00 | 0.35 | 0.00 | 85 | 1009.7 |
| 20260505215954 | 48 | 239 | 2.0 | 7.0 | 0.00 | 0.35 | 0.35 | 85 | 1009.7 |
| 20260505215755 | 48 | 213 | 3.0 | 7.0 | 0.00 | 0.35 | 0.35 | 85 | 1009.6 |
| 20260505215555 | 48 | 214 | 3.0 | 7.0 | 0.00 | 0.35 | 0.35 | 85 | 1009.7 |
| 20260505215354 | 49 | 253 | 2.0 | 7.0 | 0.00 | 0.35 | 0.35 | 85 | 1009.8 |
| 20260505215154 | 49 | 203 | 2.0 | 7.0 | 0.00 | 0.35 | 0.35 | 85 | 1009.8 |
| 20260505214629 | 49 | 207 | 2.0 | 6.0 | 0.00 | 0.35 | 0.35 | 85 | 1009.7 |
| 20260505214427 | 49 | 238 | 2.0 | 6.0 | 0.00 | 0.35 | 0.35 | 85 | 1009.7 |
| 20260505214218 | 49 | 221 | 3.0 | 6.0 | 0.00 | 0.35 | 0.35 | 85 | 1009.7 |
| 20260505213337 | 49 | 237 | 3.0 | 8.0 | 0.00 | 0.35 | 0.35 | 86 | 1009.7 |
| 20260505213129 | 49 | 214 | 3.0 | 8.0 | 0.00 | 0.35 | 0.35 | 87 | 1009.7 |
| 20260505212600 | 48 | 210 | 3.0 | 8.0 | 0.00 | 0.35 | 0.35 | 88 | 1009.7 |
| 20260505212350 | 48 | 221 | 3.0 | 8.0 | 0.00 | 0.35 | 0.35 | 89 | 1009.7 |
| 20260505211519 | 49 | 237 | 2.0 | 8.0 | 0.00 | 0.35 | 0.35 | 90 | 1009.6 |
| 20260505211311 | 49 | 205 | 2.0 | 10.0 | 0.00 | 0.35 | 0.35 | 90 | 1009.7 |
| 20260505211106 | 49 | 240 | 2.0 | 10.0 | 0.00 | 0.35 | 0.35 | 91 | 1009.7 |
| 20260505210900 | 49 | 208 | 2.0 | 10.0 | 0.00 | 0.35 | 0.35 | 91 | 1009.7 |
| 20260505210329 | 49 | 245 | 2.0 | 10.0 | 0.00 | 0.35 | 0.35 | 91 | 1009.7 |
| 20260505210122 | 49 | 201 | 2.0 | 10.0 | 0.00 | 0.35 | 0.35 | 91 | 1009.7 |
| 20260505205918 | 49 | 226 | 2.0 | 10.0 | 0.00 | 0.35 | 0.35 | 91 | 1009.8 |
| 20260505205713 | 49 | 250 | 2.0 | 10.0 | 0.00 | 0.35 | 0.35 | 91 | 1009.7 |
| 20260505205511 | 49 | 243 | 2.0 | 10.0 | 0.00 | 0.35 | 0.35 | 90 | 1009.8 |
| 20260505204941 | 49 | 247 | 2.0 | 9.0 | 0.00 | 0.35 | 0.35 | 90 | 1009.8 |
| 20260505204420 | 49 | 252 | 2.0 | 9.0 | 0.00 | 0.35 | 0.35 | 90 | 1009.9 |
| 20260505203847 | 49 | 226 | 1.0 | 6.0 | 0.00 | 0.35 | 0.35 | 91 | 1009.8 |
| 20260505203318 | 49 | 200 | 1.0 | 4.0 | 0.00 | 0.35 | 0.35 | 91 | 1009.8 |
| 20260505202756 | 49 | 223 | 2.0 | 4.0 | 0.00 | 0.35 | 0.35 | 91 | 1010.0 |
| 20260505202549 | 49 | 226 | 2.0 | 7.0 | 0.00 | 0.35 | 0.35 | 90 | 1010.0 |
| 20260505202024 | 49 | 242 | 2.0 | 7.0 | 0.00 | 0.35 | 0.35 | 90 | 1009.9 |
| 20260505201821 | 49 | 85 | 2.0 | 7.0 | 0.00 | 0.35 | 0.35 | 90 | 1010.0 |
| 20260505201615 | 49 | 214 | 2.0 | 7.0 | 0.00 | 0.35 | 0.35 | 89 | 1009.9 |
| 20260505201408 | 49 | 252 | 2.0 | 7.0 | 0.00 | 0.35 | 0.35 | 90 | 1009.8 |
| 20260505201208 | 49 | 251 | 2.0 | 7.0 | 0.00 | 0.35 | 0.35 | 90 | 1009.8 |
| 20260505201007 | 49 | 214 | 2.0 | 7.0 | 0.00 | 0.35 | 0.35 | 90 | 1009.8 |
| 20260505200806 | 49 | 234 | 2.0 | 7.0 | 0.00 | 0.35 | 0.35 | 90 | 1009.8 |
| 20260505200601 | 49 | 257 | 2.0 | 5.0 | 0.00 | 0.35 | 0.35 | 90 | 1009.8 |
| 20260505200353 | 49 | 208 | 2.0 | 5.0 | 0.00 | 0.35 | 0.35 | 90 | 1009.8 |
| 20260505200143 | 49 | 226 | 2.0 | 5.0 | 0.00 | 0.35 | 0.35 | 90 | 1009.8 |
| 20260505195937 | 49 | 210 | 2.0 | 5.0 | 0.00 | 0.35 | 0.35 | 90 | 1009.7 |
| 20260505195732 | 49 | 217 | 2.0 | 6.0 | 0.00 | 0.35 | 0.35 | 90 | 1009.8 |
| 20260505195523 | 49 | 236 | 1.0 | 6.0 | 0.00 | 0.35 | 0.35 | 90 | 1009.8 |
| 20260505194633 | 49 | 224 | 1.0 | 6.0 | 0.00 | 0.35 | 0.35 | 91 | 1009.7 |
| 20260505194434 | 49 | 229 | 1.0 | 6.0 | 0.00 | 0.35 | 0.35 | 91 | 1009.7 |
| 20260505194234 | 49 | 221 | 1.0 | 6.0 | 0.00 | 0.35 | 0.35 | 91 | 1009.6 |
| 20260505194027 | 49 | 224 | 1.0 | 6.0 | 0.00 | 0.35 | 0.35 | 92 | 1009.6 |
| 20260505193149 | 49 | 134 | 0.0 | 5.0 | 0.00 | 0.35 | 0.35 | 93 | 1009.2 |
| 20260505192948 | 49 | 153 | 0.0 | 5.0 | 0.00 | 0.35 | 0.35 | 93 | 1009.2 |
| 20260505192738 | 49 | 70 | 0.0 | 5.0 | 0.00 | 0.35 | 0.35 | 93 | 1009.2 |
| 20260505192222 | 49 | 210 | 0.0 | 5.0 | 0.00 | 0.35 | 0.35 | 93 | 1009.2 |
| 20260505192014 | 49 | 200 | 0.0 | 3.0 | 0.00 | 0.35 | 0.35 | 92 | 1009.2 |
| 20260505191805 | 49 | 212 | 0.0 | 3.0 | 0.00 | 0.35 | 0.35 | 92 | 1009.1 |
| 20260505191601 | 49 | 97 | 1.0 | 9.0 | 0.00 | 0.35 | 0.35 | 92 | 1009.1 |
| 20260505191359 | 49 | 224 | 1.0 | 9.0 | 0.00 | 0.35 | 0.35 | 92 | 1009.0 |
| 20260505191148 | 49 | 226 | 1.0 | 9.0 | 0.00 | 0.35 | 0.35 | 92 | 1009.1 |
| 20260505190630 | 49 | 229 | 2.0 | 9.0 | 0.00 | 0.35 | 0.35 | 92 | 1009.1 |
| 20260505190431 | 49 | 232 | 1.0 | 9.0 | 0.00 | 0.35 | 0.35 | 92 | 1009.0 |
| 20260505190224 | 49 | 169 | 1.0 | 5.0 | 0.00 | 0.35 | 0.35 | 92 | 1009.0 |
| 20260505190013 | 49 | 164 | 1.0 | 5.0 | 0.00 | 0.35 | 0.35 | 92 | 1009.2 |
| 20260505185815 | 49 | 257 | 1.0 | 5.0 | 0.00 | 0.35 | 0.35 | 92 | 1009.2 |
| 20260505185606 | 49 | 202 | 1.0 | 4.0 | 0.00 | 0.35 | 0.35 | 92 | 1009.0 |
| 20260505185403 | 49 | 206 | 1.0 | 5.0 | 0.00 | 0.35 | 0.35 | 92 | 1009.0 |
| 20260505185156 | 49 | 214 | 1.0 | 5.0 | 0.00 | 0.35 | 0.35 | 92 | 1009.0 |
| 20260505184949 | 49 | 229 | 1.0 | 5.0 | 0.00 | 0.35 | 0.35 | 92 | 1009.1 |
| 20260505184744 | 49 | 220 | 1.0 | 5.0 | 0.00 | 0.35 | 0.35 | 92 | 1009.1 |
| 20260505184229 | 49 | 154 | 1.0 | 5.0 | 0.00 | 0.35 | 0.35 | 92 | 1009.1 |
| 20260505183702 | 49 | 217 | 1.0 | 5.0 | 0.00 | 0.35 | 0.35 | 91 | 1009.1 |
| 20260505183453 | 49 | 237 | 1.0 | 4.0 | 0.00 | 0.35 | 0.35 | 92 | 1009.0 |
| 20260505182936 | 49 | 172 | 1.0 | 4.0 | 0.00 | 0.35 | 0.35 | 92 | 1009.0 |
| 20260505182727 | 49 | 257 | 1.0 | 4.0 | 0.00 | 0.35 | 0.35 | 93 | 1009.0 |
| 20260505182519 | 49 | 214 | 1.0 | 4.0 | 0.00 | 0.35 | 0.35 | 93 | 1009.0 |
| 20260505182318 | 49 | 193 | 1.0 | 4.0 | 0.00 | 0.35 | 0.35 | 93 | 1009.1 |
| 20260505181744 | 49 | 215 | 1.0 | 4.0 | 0.00 | 0.35 | 0.35 | 93 | 1009.1 |
| 20260505181542 | 49 | 218 | 1.0 | 4.0 | 0.00 | 0.35 | 0.35 | 93 | 1009.1 |
| 20260505181336 | 50 | 216 | 1.0 | 4.0 | 0.00 | 0.35 | 0.35 | 93 | 1009.1 |
| 20260505181133 | 50 | 226 | 0.0 | 4.0 | 0.00 | 0.35 | 0.35 | 93 | 1009.1 |
| 20260505180928 | 50 | 210 | 0.0 | 3.0 | 0.00 | 0.35 | 0.35 | 94 | 1009.1 |
| 20260505180720 | 50 | 237 | 0.0 | 3.0 | 0.00 | 0.34 | 0.34 | 94 | 1009.1 |
| 20260505180511 | 50 | 203 | 0.0 | 3.0 | 0.00 | 0.34 | 0.34 | 94 | 1009.1 |
| 20260505180305 | 50 | 208 | 0.0 | 3.0 | 0.00 | 0.34 | 0.34 | 95 | 1009.1 |
| 20260505180057 | 50 | 231 | 0.0 | 3.0 | 0.00 | 0.34 | 0.34 | 95 | 1009.1 |
| 20260505175853 | 50 | 211 | 0.0 | 3.0 | 0.00 | 0.34 | 0.34 | 95 | 1009.1 |
| 20260505175644 | 50 | 210 | 0.0 | 4.0 | 0.00 | 0.34 | 0.34 | 95 | 1009.1 |
| 20260505175434 | 50 | 217 | 0.0 | 4.0 | 0.00 | 0.34 | 0.34 | 95 | 1009.0 |
| 20260505175228 | 50 | 160 | 0.0 | 4.0 | 0.00 | 0.34 | 0.34 | 95 | 1009.1 |
| 20260505175023 | 50 | 213 | 0.0 | 4.0 | 0.00 | 0.34 | 0.34 | 95 | 1009.1 |
| 20260505174819 | 50 | 191 | 0.0 | 4.0 | 0.00 | 0.34 | 0.34 | 95 | 1009.2 |
| 20260505174615 | 50 | 224 | 0.0 | 3.0 | 0.00 | 0.34 | 0.34 | 95 | 1009.2 |
| 20260505174409 | 50 | 182 | 0.0 | 3.0 | 0.00 | 0.34 | 0.34 | 95 | 1009.2 |
| 20260505174205 | 50 | 102 | 0.0 | 3.0 | 0.00 | 0.34 | 0.34 | 95 | 1009.2 |
| 20260505173641 | 51 | 144 | 0.0 | 2.0 | 0.00 | 0.34 | 0.34 | 95 | 1009.2 |
| 20260505173442 | 51 | 113 | 0.0 | 1.0 | 0.00 | 0.34 | 0.34 | 95 | 1009.2 |
| 20260505173233 | 51 | 95 | 0.0 | 1.0 | 0.00 | 0.34 | 0.34 | 95 | 1009.2 |
| 20260505172039 | 51 | 203 | 0.0 | 2.0 | 0.00 | 0.34 | 0.34 | 95 | 1009.3 |
| 20260505171834 | 51 | 210 | 0.0 | 1.0 | 0.00 | 0.34 | 0.34 | 95 | 1009.3 |
| 20260505171314 | 51 | 237 | 1.0 | 0.0 | 0.00 | 0.34 | 0.34 | 94 | 1009.3 |
| 20260505170756 | 51 | 238 | 1.0 | 7.0 | 0.00 | 0.34 | 0.34 | 94 | 1009.4 |
| 20260505170230 | 51 | 239 | 2.0 | 7.0 | 0.00 | 0.33 | 0.34 | 93 | 1009.3 |
| 20260505170022 | 51 | 242 | 2.0 | 7.0 | 0.00 | 0.33 | 0.33 | 93 | 1009.2 |
| 20260505165821 | 51 | 245 | 2.0 | 7.0 | 0.00 | 0.33 | 0.33 | 93 | 1009.3 |
| 20260505165612 | 51 | 234 | 2.0 | 7.0 | 0.00 | 0.33 | 0.33 | 93 | 1009.3 |
| 20260505165410 | 51 | 243 | 2.0 | 7.0 | 0.00 | 0.33 | 0.33 | 93 | 1009.3 |
| 20260505165211 | 52 | 264 | 2.0 | 6.0 | 0.00 | 0.33 | 0.33 | 93 | 1009.3 |
| 20260505164651 | 52 | 236 | 2.0 | 10.0 | 0.00 | 0.33 | 0.33 | 93 | 1009.2 |
| 20260505164444 | 52 | 240 | 3.0 | 10.0 | 0.00 | 0.33 | 0.33 | 93 | 1009.3 |
| 20260505164242 | 52 | 249 | 3.0 | 10.0 | 0.00 | 0.33 | 0.33 | 93 | 1009.3 |
| 20260505164032 | 52 | 245 | 3.0 | 10.0 | 0.00 | 0.33 | 0.33 | 92 | 1009.3 |
| 20260505163825 | 52 | 223 | 4.0 | 10.0 | 0.00 | 0.33 | 0.33 | 92 | 1009.3 |
| 20260505163617 | 52 | 240 | 4.0 | 10.0 | 0.00 | 0.33 | 0.33 | 91 | 1009.3 |
| 20260505163415 | 52 | 240 | 4.0 | 10.0 | 0.00 | 0.33 | 0.33 | 91 | 1009.4 |
| 20260505163211 | 53 | 234 | 4.0 | 10.0 | 0.00 | 0.33 | 0.33 | 90 | 1009.4 |
| 20260505163003 | 53 | 233 | 5.0 | 10.0 | 0.00 | 0.33 | 0.33 | 90 | 1009.4 |
| 20260505162759 | 53 | 246 | 4.0 | 10.0 | 0.00 | 0.33 | 0.33 | 91 | 1009.3 |
| 20260505162554 | 53 | 205 | 5.0 | 11.0 | 0.00 | 0.33 | 0.33 | 91 | 1009.3 |
| 20260505162355 | 53 | 240 | 5.0 | 11.0 | 0.00 | 0.33 | 0.33 | 91 | 1009.3 |
| 20260505162150 | 53 | 220 | 5.0 | 11.0 | 0.00 | 0.33 | 0.33 | 90 | 1009.3 |
| 20260505161950 | 53 | 226 | 5.0 | 11.0 | 0.00 | 0.33 | 0.33 | 91 | 1009.2 |
| 20260505161747 | 53 | 227 | 5.0 | 11.0 | 0.00 | 0.33 | 0.33 | 90 | 1009.3 |
| 20260505161537 | 53 | 219 | 5.0 | 11.0 | 0.00 | 0.33 | 0.33 | 90 | 1009.3 |
| 20260505161328 | 53 | 228 | 5.0 | 11.0 | 0.00 | 0.33 | 0.33 | 89 | 1009.3 |
| 20260505160759 | 54 | 233 | 5.0 | 11.0 | 0.00 | 0.33 | 0.33 | 89 | 1009.2 |
| 20260505160556 | 54 | 239 | 5.0 | 11.0 | 0.00 | 0.33 | 0.33 | 89 | 1009.1 |
| 20260505160353 | 54 | 246 | 4.0 | 11.0 | 0.00 | 0.33 | 0.33 | 88 | 1009.1 |
| 20260505160144 | 54 | 220 | 4.0 | 11.0 | 0.00 | 0.33 | 0.33 | 90 | 1009.0 |
| 20260505153324 | 54 | 210 | 4.0 | 11.0 | 0.00 | 0.33 | 0.33 | 94 | 1008.9 |
| 20260505153123 | 53 | 198 | 4.0 | 11.0 | 0.00 | 0.33 | 0.33 | 94 | 1008.9 |
| 20260505152913 | 53 | 252 | 5.0 | 11.0 | 0.00 | 0.33 | 0.33 | 95 | 1008.9 |
| 20260505152704 | 53 | 234 | 5.0 | 11.0 | 0.00 | 0.33 | 0.33 | 95 | 1008.9 |
| 20260505152504 | 52 | 242 | 4.0 | 10.0 | 0.00 | 0.33 | 0.33 | 95 | 1008.9 |
| 20260505151628 | 52 | 238 | 3.0 | 11.0 | 0.00 | 0.34 | 0.33 | 96 | 1008.8 |
| 20260505151107 | 52 | 259 | 4.0 | 11.0 | 0.00 | 0.34 | 0.33 | 96 | 1008.8 |
| 20260505150859 | 52 | 233 | 4.0 | 11.0 | 0.00 | 0.34 | 0.33 | 96 | 1008.9 |
| 20260505150654 | 52 | 235 | 4.0 | 13.0 | 0.00 | 0.34 | 0.33 | 95 | 1009.0 |
| 20260505150454 | 52 | 207 | 5.0 | 13.0 | 0.00 | 0.34 | 0.33 | 96 | 1009.0 |
| 20260505150252 | 52 | 245 | 5.0 | 13.0 | 0.00 | 0.34 | 0.33 | 97 | 1008.9 |
| 20260505140538 | 50 | 219 | 4.0 | 11.0 | 0.00 | 0.37 | 0.33 | 97 | 1009.1 |
| 20260505140332 | 50 | 248 | 4.0 | 11.0 | 0.00 | 0.37 | 0.33 | 97 | 1009.0 |
| 20260505140132 | 50 | 247 | 4.0 | 11.0 | 0.00 | 0.37 | 0.33 | 96 | 1009.1 |
| 20260505130253 | 50 | 241 | 6.0 | 13.0 | 0.00 | 0.41 | 0.31 | 98 | 1009.1 |
| 20260505125025 | 49 | 218 | 8.0 | 14.0 | 0.00 | 0.41 | 0.31 | 97 | 1009.0 |
| 20260505124818 | 49 | 247 | 8.0 | 14.0 | 0.00 | 0.41 | 0.31 | 97 | 1009.0 |
| 20260505124616 | 49 | 227 | 8.0 | 14.0 | 0.00 | 0.41 | 0.31 | 96 | 1009.1 |
| 20260505124412 | 49 | 222 | 8.0 | 14.0 | 0.00 | 0.41 | 0.31 | 96 | 1009.0 |
| 20260505124207 | 49 | 239 | 7.0 | 14.0 | 0.00 | 0.40 | 0.31 | 97 | 1009.0 |
| 20260505123639 | 49 | 235 | 7.0 | 12.0 | 0.00 | 0.40 | 0.30 | 97 | 1009.2 |
| 20260505123112 | 49 | 215 | 7.0 | 11.0 | 0.00 | 0.40 | 0.30 | 97 | 1009.2 |
| 20260505122908 | 49 | 246 | 6.0 | 11.0 | 0.00 | 0.40 | 0.30 | 97 | 1009.3 |
| 20260505122703 | 49 | 245 | 5.0 | 11.0 | 0.00 | 0.40 | 0.30 | 97 | 1009.2 |
| 20260505122457 | 49 | 226 | 5.0 | 11.0 | 0.00 | 0.40 | 0.30 | 97 | 1009.3 |
| 20260505122251 | 49 | 250 | 4.0 | 11.0 | 0.00 | 0.40 | 0.30 | 97 | 1009.3 |
| 20260505121730 | 49 | 283 | 5.0 | 11.0 | 0.03 | 0.40 | 0.30 | 97 | 1009.3 |
| 20260505121527 | 50 | 224 | 4.0 | 11.0 | 0.03 | 0.40 | 0.30 | 97 | 1009.3 |
| 20260505121321 | 50 | 248 | 4.0 | 11.0 | 0.03 | 0.40 | 0.30 | 97 | 1009.4 |
| 20260505120756 | 50 | 240 | 4.0 | 11.0 | 0.03 | 0.40 | 0.30 | 96 | 1009.3 |
| 20260505120239 | 50 | 268 | 4.0 | 11.0 | 0.03 | 0.40 | 0.29 | 96 | 1009.4 |
| 20260505120037 | 50 | 238 | 5.0 | 13.0 | 0.03 | 0.40 | 0.29 | 95 | 1009.4 |
| 20260505115834 | 50 | 227 | 5.0 | 13.0 | 0.03 | 0.40 | 0.29 | 95 | 1009.3 |
| 20260505115635 | 50 | 247 | 5.0 | 13.0 | 0.03 | 0.40 | 0.29 | 95 | 1009.4 |
| 20260505115429 | 51 | 235 | 6.0 | 13.0 | 0.03 | 0.40 | 0.29 | 95 | 1009.4 |
| 20260505115228 | 51 | 245 | 6.0 | 13.0 | 0.03 | 0.39 | 0.29 | 94 | 1009.4 |
| 20260505114707 | 51 | 229 | 7.0 | 13.0 | 0.00 | 0.39 | 0.29 | 94 | 1009.4 |
| 20260505114501 | 51 | 233 | 7.0 | 13.0 | 0.00 | 0.39 | 0.29 | 93 | 1009.4 |
| 20260505114253 | 51 | 236 | 7.0 | 13.0 | 0.00 | 0.39 | 0.29 | 93 | 1009.3 |
| 20260505114051 | 51 | 240 | 6.0 | 13.0 | 0.00 | 0.38 | 0.28 | 93 | 1009.4 |
| 20260505113847 | 51 | 276 | 6.0 | 11.0 | 0.00 | 0.38 | 0.28 | 93 | 1009.4 |
| 20260505113649 | 51 | 236 | 5.0 | 10.0 | 0.00 | 0.38 | 0.28 | 93 | 1009.4 |
| 20260505113444 | 52 | 226 | 4.0 | 10.0 | 0.00 | 0.38 | 0.28 | 94 | 1009.4 |
| 20260505112928 | 52 | 206 | 4.0 | 10.0 | 0.00 | 0.38 | 0.28 | 92 | 1009.3 |
| 20260505112725 | 52 | 240 | 4.0 | 10.0 | 0.00 | 0.38 | 0.28 | 93 | 1009.3 |
| 20260505112204 | 52 | 217 | 4.0 | 9.0 | 0.00 | 0.38 | 0.28 | 93 | 1009.3 |
| 20260505111637 | 52 | 215 | 3.0 | 9.0 | 0.00 | 0.38 | 0.28 | 94 | 1009.3 |
| 20260505111435 | 52 | 224 | 3.0 | 9.0 | 0.00 | 0.38 | 0.28 | 93 | 1009.3 |
| 20260505111226 | 52 | 220 | 3.0 | 12.0 | 0.00 | 0.38 | 0.28 | 93 | 1009.2 |
| 20260505110706 | 52 | 240 | 5.0 | 12.0 | 0.00 | 0.38 | 0.28 | 93 | 1009.3 |
| 20260505110502 | 52 | 240 | 5.0 | 12.0 | 0.00 | 0.38 | 0.28 | 92 | 1009.2 |
| 20260505110301 | 53 | 241 | 6.0 | 12.0 | 0.00 | 0.38 | 0.28 | 93 | 1009.2 |
| 20260505101753 | 53 | 238 | 3.0 | 10.0 | 0.00 | 0.38 | 0.28 | 94 | 1009.2 |
| 20260505101553 | 53 | 227 | 3.0 | 8.0 | 0.00 | 0.38 | 0.28 | 94 | 1009.2 |
| 20260505101347 | 53 | 243 | 2.0 | 8.0 | 0.00 | 0.38 | 0.28 | 94 | 1009.2 |
| 20260505100823 | 53 | 258 | 3.0 | 8.0 | 0.00 | 0.38 | 0.28 | 94 | 1009.0 |
| 20260505100620 | 53 | 240 | 3.0 | 8.0 | 0.00 | 0.38 | 0.28 | 95 | 1009.1 |
| 20260505100415 | 52 | 232 | 3.0 | 8.0 | 0.00 | 0.38 | 0.28 | 95 | 1009.0 |
| 20260505100215 | 52 | 237 | 3.0 | 8.0 | 0.00 | 0.38 | 0.28 | 94 | 1009.1 |
| 20260505100010 | 52 | 223 | 3.0 | 8.0 | 0.00 | 0.38 | 0.28 | 95 | 1009.0 |
| 20260505095803 | 52 | 248 | 2.0 | 6.0 | 0.00 | 0.38 | 0.28 | 95 | 1009.2 |
| 20260505095557 | 52 | 240 | 2.0 | 6.0 | 0.00 | 0.38 | 0.28 | 96 | 1009.1 |
| 20260505095357 | 52 | 238 | 1.0 | 5.0 | 0.00 | 0.38 | 0.28 | 96 | 1009.1 |
| 20260505095149 | 52 | 241 | 1.0 | 5.0 | 0.00 | 0.38 | 0.28 | 96 | 1009.2 |
| 20260505094941 | 51 | 235 | 1.0 | 5.0 | 0.00 | 0.38 | 0.28 | 95 | 1009.1 |
| 20260505094738 | 52 | 240 | 1.0 | 5.0 | 0.00 | 0.38 | 0.28 | 96 | 1009.1 |
| 20260505094535 | 52 | 245 | 1.0 | 5.0 | 0.00 | 0.38 | 0.28 | 96 | 1009.1 |
| 20260505094331 | 52 | 262 | 1.0 | 5.0 | 0.00 | 0.38 | 0.28 | 96 | 1009.1 |
| 20260505094124 | 52 | 229 | 1.0 | 5.0 | 0.00 | 0.38 | 0.28 | 96 | 1009.1 |
| 20260505093922 | 52 | 255 | 1.0 | 4.0 | 0.00 | 0.38 | 0.28 | 97 | 1009.1 |
| 20260505093717 | 51 | 236 | 1.0 | 3.0 | 0.00 | 0.38 | 0.28 | 96 | 1009.1 |
| 20260505093510 | 51 | 286 | 1.0 | 3.0 | 0.00 | 0.38 | 0.28 | 95 | 1009.1 |
| 20260505093302 | 52 | 286 | 1.0 | 3.0 | 0.00 | 0.38 | 0.28 | 95 | 1009.1 |
| 20260505093103 | 52 | 288 | 0.0 | 3.0 | 0.00 | 0.38 | 0.28 | 96 | 1009.1 |
| 20260505092857 | 52 | 266 | 0.0 | 3.0 | 0.00 | 0.38 | 0.28 | 95 | 1009.0 |
| 20260505092333 | 52 | 245 | 0.0 | 3.0 | 0.00 | 0.38 | 0.28 | 94 | 1009.0 |
| 20260505092123 | 52 | 276 | 0.0 | 1.0 | 0.00 | 0.38 | 0.28 | 95 | 1009.0 |
| 20260505091921 | 52 | 260 | 0.0 | 0.0 | 0.00 | 0.38 | 0.28 | 95 | 1009.0 |
| 20260505091717 | 52 | 271 | 0.0 | 0.0 | 0.00 | 0.38 | 0.28 | 95 | 1009.0 |
| 20260505091158 | 52 | 300 | 0.0 | 1.0 | 0.00 | 0.38 | 0.28 | 95 | 1009.0 |
| 20260505090958 | 52 | 227 | 0.0 | 0.0 | 0.00 | 0.38 | 0.28 | 95 | 1009.0 |
| 20260505090438 | 52 | 273 | 0.0 | 2.0 | 0.00 | 0.38 | 0.28 | 96 | 1008.9 |
| 20260505090234 | 52 | 45 | 0.0 | 2.0 | 0.00 | 0.38 | 0.28 | 97 | 1008.9 |
| 20260505090029 | 52 | 65 | 0.0 | 2.0 | 0.00 | 0.38 | 0.28 | 98 | 1008.9 |
| 20260505085820 | 52 | 23 | 0.0 | 0.0 | 0.00 | 0.38 | 0.28 | 98 | 1008.8 |
| 20260505085259 | 51 | 262 | 0.0 | 0.0 | 0.00 | 0.38 | 0.28 | 98 | 1008.8 |
| 20260505084735 | 51 | 238 | 0.0 | 0.0 | 0.00 | 0.38 | 0.28 | 98 | 1008.8 |
| 20260505084526 | 51 | 236 | 0.0 | 0.0 | 0.00 | 0.38 | 0.28 | 98 | 1008.8 |
| 20260505083323 | 50 | 242 | 0.0 | 0.0 | 0.00 | 0.38 | 0.28 | 98 | 1008.8 |
| 20260505083115 | 50 | 242 | 0.0 | 0.0 | 0.00 | 0.38 | 0.28 | 98 | 1008.8 |
| 20260505082914 | 50 | 242 | 0.0 | 0.0 | 0.00 | 0.38 | 0.28 | 98 | 1008.8 |
| 20260505082713 | 50 | 242 | 0.0 | 0.0 | 0.00 | 0.38 | 0.28 | 98 | 1008.8 |
| 20260505082513 | 50 | 242 | 0.0 | 0.0 | 0.00 | 0.38 | 0.28 | 98 | 1008.8 |
| 20260505081944 | 50 | 242 | 0.0 | 0.0 | 0.00 | 0.38 | 0.28 | 98 | 1008.7 |
| 20260505081047 | 50 | 268 | 0.0 | 0.0 | 0.00 | 0.38 | 0.28 | 98 | 1008.9 |
| 20260505080844 | 50 | 23 | 0.0 | 0.0 | 0.00 | 0.38 | 0.28 | 98 | 1008.8 |
| 20260505080635 | 50 | 51 | 0.0 | 0.0 | 0.00 | 0.38 | 0.28 | 98 | 1008.9 |
| 20260505080431 | 50 | 50 | 0.0 | 1.0 | 0.00 | 0.38 | 0.28 | 98 | 1008.9 |
| 20260505080223 | 50 | 45 | 0.0 | 1.0 | 0.00 | 0.38 | 0.28 | 98 | 1008.9 |
| 20260505080020 | 50 | 45 | 0.0 | 1.0 | 0.00 | 0.38 | 0.28 | 99 | 1008.9 |
| 20260505075144 | 49 | 61 | 0.0 | 1.0 | 0.00 | 0.38 | 0.28 | 99 | 1008.9 |
| 20260505074623 | 49 | 63 | 0.0 | 2.0 | 0.00 | 0.38 | 0.28 | 99 | 1008.9 |
| 20260505074417 | 49 | 65 | 0.0 | 2.0 | 0.00 | 0.38 | 0.28 | 99 | 1008.9 |
| 20260505074214 | 49 | 60 | 0.0 | 4.0 | 0.00 | 0.38 | 0.28 | 99 | 1008.9 |
| 20260505074004 | 49 | 55 | 0.0 | 4.0 | 0.00 | 0.38 | 0.28 | 99 | 1008.9 |
| 20260505073802 | 49 | 47 | 0.0 | 4.0 | 0.00 | 0.38 | 0.28 | 99 | 1008.8 |
| 20260505073556 | 49 | 117 | 0.0 | 4.0 | 0.00 | 0.38 | 0.28 | 99 | 1008.9 |
| 20260505073023 | 49 | 120 | 1.0 | 6.0 | 0.00 | 0.38 | 0.28 | 100 | 1008.9 |
| 20260505072820 | 49 | 95 | 1.0 | 6.0 | 0.00 | 0.38 | 0.28 | 100 | 1008.9 |
| 20260505072618 | 49 | 79 | 1.0 | 6.0 | 0.00 | 0.38 | 0.28 | 99 | 1009.0 |
| 20260505072052 | 48 | 70 | 2.0 | 6.0 | 0.00 | 0.38 | 0.28 | 99 | 1008.9 |
| 20260505071846 | 48 | 56 | 2.0 | 6.0 | 0.00 | 0.38 | 0.28 | 99 | 1008.9 |
| 20260505071637 | 48 | 82 | 2.0 | 6.0 | 0.00 | 0.38 | 0.28 | 99 | 1008.9 |
| 20260505071436 | 48 | 89 | 1.0 | 6.0 | 0.00 | 0.38 | 0.28 | 99 | 1009.0 |
| 20260505071227 | 48 | 57 | 1.0 | 5.0 | 0.00 | 0.38 | 0.28 | 100 | 1009.1 |
| 20260505070337 | 48 | 86 | 1.0 | 4.0 | 0.00 | 0.38 | 0.28 | 100 | 1009.2 |
| 20260505070135 | 48 | 88 | 0.0 | 4.0 | 0.00 | 0.38 | 0.28 | 100 | 1009.2 |
| 20260505065933 | 48 | 104 | 0.0 | 3.0 | 0.00 | 0.38 | 0.28 | 100 | 1009.2 |
| 20260505065414 | 48 | 98 | 0.0 | 2.0 | 0.00 | 0.38 | 0.28 | 100 | 1009.3 |
| 20260505065212 | 48 | 113 | 0.0 | 2.0 | 0.00 | 0.38 | 0.28 | 100 | 1009.4 |
| 20260505065012 | 48 | 119 | 0.0 | 2.0 | 0.00 | 0.38 | 0.28 | 100 | 1009.3 |
| 20260505064443 | 48 | 100 | 0.0 | 2.0 | 0.00 | 0.38 | 0.28 | 100 | 1009.3 |
| 20260505064242 | 48 | 103 | 0.0 | 2.0 | 0.00 | 0.38 | 0.28 | 100 | 1009.4 |
| 20260505064037 | 48 | 73 | 0.0 | 2.0 | 0.00 | 0.38 | 0.28 | 100 | 1009.3 |
| 20260505063828 | 48 | 113 | 0.0 | 2.0 | 0.00 | 0.38 | 0.28 | 100 | 1009.4 |
| 20260505063618 | 48 | 110 | 0.0 | 2.0 | 0.00 | 0.38 | 0.28 | 100 | 1009.4 |
| 20260505063414 | 48 | 110 | 0.0 | 2.0 | 0.03 | 0.38 | 0.28 | 100 | 1009.5 |
| 20260505062851 | 48 | 105 | 0.0 | 2.0 | 0.03 | 0.38 | 0.28 | 100 | 1009.6 |
| 20260505062650 | 48 | 103 | 0.0 | 2.0 | 0.03 | 0.38 | 0.28 | 100 | 1009.6 |
| 20260505062444 | 47 | 120 | 0.0 | 2.0 | 0.03 | 0.38 | 0.28 | 100 | 1009.6 |
| 20260505062237 | 48 | 110 | 0.0 | 1.0 | 0.03 | 0.38 | 0.28 | 100 | 1009.6 |
| 20260505061714 | 48 | 105 | 0.0 | 0.0 | 0.03 | 0.37 | 0.27 | 100 | 1009.7 |
| 20260505061512 | 47 | 105 | 0.0 | 0.0 | 0.03 | 0.37 | 0.27 | 100 | 1009.7 |
| 20260505060946 | 47 | 110 | 0.0 | 0.0 | 0.03 | 0.37 | 0.27 | 100 | 1009.8 |
| 20260505060746 | 47 | 240 | 0.0 | 0.0 | 0.03 | 0.37 | 0.27 | 100 | 1009.8 |
| 20260505060543 | 47 | 240 | 0.0 | 0.0 | 0.03 | 0.37 | 0.27 | 100 | 1009.8 |
| 20260505060023 | 47 | 240 | 0.0 | 0.0 | 0.04 | 0.37 | 0.26 | 100 | 1009.9 |
| 20260505055822 | 47 | 240 | 0.0 | 0.0 | 0.04 | 0.37 | 0.26 | 100 | 1009.9 |
| 20260505055619 | 47 | 240 | 0.0 | 0.0 | 0.04 | 0.37 | 0.26 | 100 | 1009.9 |
| 20260505055053 | 47 | 240 | 0.0 | 0.0 | 0.04 | 0.36 | 0.25 | 100 | 1010.0 |
| 20260505054851 | 47 | 240 | 0.0 | 0.0 | 0.06 | 0.36 | 0.25 | 100 | 1010.0 |
| 20260505054648 | 47 | 240 | 0.0 | 0.0 | 0.06 | 0.36 | 0.25 | 100 | 1010.0 |
| 20260505054123 | 47 | 240 | 0.0 | 0.0 | 0.06 | 0.35 | 0.25 | 100 | 1010.0 |
| 20260505053921 | 47 | 240 | 0.0 | 0.0 | 0.07 | 0.35 | 0.25 | 100 | 1010.0 |
| 20260505053714 | 47 | 240 | 0.0 | 0.0 | 0.07 | 0.35 | 0.25 | 100 | 1010.0 |
| 20260505053506 | 47 | 240 | 0.0 | 0.0 | 0.07 | 0.35 | 0.25 | 100 | 1010.0 |
| 20260505053301 | 47 | 240 | 0.0 | 3.0 | 0.06 | 0.34 | 0.24 | 100 | 1010.0 |
| 20260505053055 | 47 | 242 | 0.0 | 3.0 | 0.06 | 0.34 | 0.24 | 100 | 1010.0 |
| 20260505052848 | 47 | 243 | 0.0 | 3.0 | 0.06 | 0.34 | 0.24 | 100 | 1010.1 |
| 20260505052639 | 47 | 243 | 0.0 | 5.0 | 0.07 | 0.33 | 0.23 | 100 | 1010.0 |
| 20260505052436 | 47 | 241 | 0.0 | 5.0 | 0.10 | 0.33 | 0.23 | 100 | 1010.0 |
| 20260505052236 | 47 | 256 | 0.0 | 5.0 | 0.10 | 0.33 | 0.23 | 100 | 1010.1 |
| 20260505052033 | 47 | 244 | 1.0 | 5.0 | 0.10 | 0.33 | 0.23 | 100 | 1010.0 |
| 20260505051827 | 47 | 245 | 1.0 | 5.0 | 0.14 | 0.33 | 0.22 | 100 | 1010.0 |
| 20260505051617 | 47 | 249 | 1.0 | 6.0 | 0.14 | 0.33 | 0.22 | 100 | 1010.1 |
| 20260505051417 | 47 | 233 | 1.0 | 6.0 | 0.21 | 0.32 | 0.22 | 100 | 1010.0 |
| 20260505051217 | 47 | 234 | 1.0 | 6.0 | 0.23 | 0.31 | 0.21 | 100 | 1010.0 |
| 20260505051014 | 47 | 223 | 1.0 | 6.0 | 0.22 | 0.30 | 0.20 | 100 | 1010.0 |
| 20260505050805 | 47 | 237 | 1.0 | 6.0 | 0.17 | 0.29 | 0.20 | 100 | 1010.1 |
| 20260505050601 | 47 | 247 | 1.0 | 6.0 | 0.15 | 0.29 | 0.19 | 100 | 1010.1 |
| 20260505050352 | 47 | 240 | 1.0 | 6.0 | 0.22 | 0.29 | 0.18 | 100 | 1010.2 |
| 20260505050144 | 47 | 242 | 1.0 | 6.0 | 0.18 | 0.28 | 0.18 | 100 | 1010.2 |
| 20260505041426 | 47 | 236 | 3.0 | 9.0 | 0.05 | 0.18 | 0.08 | 100 | 1010.1 |
| 20260505041224 | 47 | 185 | 3.0 | 9.0 | 0.00 | 0.18 | 0.07 | 100 | 1010.1 |
| 20260505041016 | 47 | 197 | 3.0 | 8.0 | 0.00 | 0.18 | 0.07 | 100 | 1010.1 |
| 20260505040810 | 47 | 222 | 3.0 | 8.0 | 0.00 | 0.18 | 0.07 | 100 | 1010.1 |
| 20260505040609 | 47 | 197 | 2.0 | 8.0 | 0.00 | 0.18 | 0.07 | 100 | 1010.0 |
| 20260505035729 | 47 | 217 | 3.0 | 7.0 | 0.00 | 0.17 | 0.07 | 100 | 1010.1 |
| 20260505035523 | 47 | 249 | 3.0 | 7.0 | 0.00 | 0.17 | 0.07 | 100 | 1010.1 |
| 20260505035324 | 47 | 219 | 3.0 | 7.0 | 0.00 | 0.17 | 0.07 | 100 | 1010.2 |
| 20260505035120 | 47 | 213 | 2.0 | 7.0 | 0.00 | 0.17 | 0.07 | 99 | 1010.2 |
| 20260505034921 | 47 | 239 | 2.0 | 7.0 | 0.00 | 0.17 | 0.07 | 99 | 1010.2 |
| 20260505034719 | 47 | 243 | 2.0 | 7.0 | 0.00 | 0.17 | 0.07 | 99 | 1010.2 |
| 20260505034512 | 47 | 214 | 2.0 | 6.0 | 0.00 | 0.17 | 0.07 | 99 | 1010.2 |
| 20260505034312 | 47 | 202 | 2.0 | 6.0 | 0.00 | 0.17 | 0.07 | 99 | 1010.2 |
| 20260505034104 | 47 | 220 | 2.0 | 6.0 | 0.00 | 0.17 | 0.07 | 99 | 1010.3 |
| 20260505033859 | 47 | 228 | 2.0 | 6.0 | 0.00 | 0.17 | 0.07 | 99 | 1010.2 |
| 20260505033339 | 47 | 202 | 2.0 | 5.0 | 0.00 | 0.17 | 0.07 | 99 | 1010.3 |
| 20260505033139 | 47 | 236 | 1.0 | 4.0 | 0.00 | 0.17 | 0.07 | 99 | 1010.2 |
| 20260505032929 | 47 | 252 | 1.0 | 4.0 | 0.00 | 0.17 | 0.07 | 99 | 1010.3 |
| 20260505032720 | 47 | 242 | 1.0 | 4.0 | 0.00 | 0.17 | 0.07 | 99 | 1010.3 |
| 20260505032514 | 47 | 219 | 1.0 | 4.0 | 0.00 | 0.17 | 0.07 | 99 | 1010.2 |
| 20260505032307 | 47 | 216 | 0.0 | 2.0 | 0.00 | 0.17 | 0.07 | 99 | 1010.1 |
| 20260505032058 | 47 | 250 | 0.0 | 2.0 | 0.00 | 0.17 | 0.07 | 99 | 1010.2 |
| 20260505031848 | 47 | 232 | 0.0 | 2.0 | 0.00 | 0.17 | 0.07 | 99 | 1010.2 |
| 20260505031649 | 47 | 212 | 0.0 | 1.0 | 0.00 | 0.17 | 0.07 | 99 | 1010.2 |
| 20260505031439 | 47 | 236 | 0.0 | 1.0 | 0.00 | 0.17 | 0.07 | 99 | 1010.2 |
| 20260505031232 | 47 | 221 | 0.0 | 0.0 | 0.00 | 0.17 | 0.07 | 99 | 1010.3 |
| 20260505031029 | 47 | 231 | 0.0 | 0.0 | 0.00 | 0.16 | 0.06 | 99 | 1010.3 |
| 20260505030823 | 47 | 224 | 0.0 | 0.0 | 0.03 | 0.16 | 0.06 | 99 | 1010.2 |
| 20260505030621 | 47 | 203 | 0.0 | 0.0 | 0.03 | 0.16 | 0.06 | 99 | 1010.2 |
| 20260505030056 | 47 | 202 | 0.0 | 0.0 | 0.03 | 0.16 | 0.06 | 99 | 1010.3 |
| 20260505025849 | 47 | 203 | 0.0 | 0.0 | 0.03 | 0.16 | 0.06 | 99 | 1010.2 |
| 20260505025329 | 47 | 203 | 0.0 | 0.0 | 0.03 | 0.15 | 0.05 | 99 | 1010.2 |
| 20260505025125 | 47 | 203 | 0.0 | 0.0 | 0.04 | 0.15 | 0.05 | 99 | 1010.2 |
| 20260505024926 | 47 | 203 | 0.0 | 0.0 | 0.04 | 0.15 | 0.05 | 99 | 1010.2 |
| 20260505024726 | 47 | 203 | 0.0 | 0.0 | 0.04 | 0.15 | 0.05 | 99 | 1010.2 |
| 20260505024524 | 47 | 203 | 0.0 | 0.0 | 0.04 | 0.15 | 0.05 | 99 | 1010.3 |
| 20260505024317 | 47 | 203 | 0.0 | 0.0 | 0.04 | 0.15 | 0.05 | 99 | 1010.2 |
| 20260505024111 | 47 | 203 | 0.0 | 0.0 | 0.04 | 0.14 | 0.04 | 99 | 1010.3 |
| 20260505023908 | 47 | 202 | 0.0 | 0.0 | 0.06 | 0.14 | 0.04 | 99 | 1010.4 |
| 20260505023708 | 47 | 203 | 0.0 | 0.0 | 0.07 | 0.14 | 0.04 | 99 | 1010.4 |
| 20260505023508 | 47 | 203 | 0.0 | 0.0 | 0.08 | 0.14 | 0.04 | 99 | 1010.4 |
| 20260505023300 | 47 | 202 | 0.0 | 0.0 | 0.08 | 0.14 | 0.04 | 99 | 1010.4 |
| 20260505023101 | 47 | 202 | 0.0 | 0.0 | 0.06 | 0.14 | 0.03 | 99 | 1010.4 |
| 20260505022858 | 47 | 202 | 0.0 | 0.0 | 0.06 | 0.14 | 0.03 | 99 | 1010.4 |
| 20260505022658 | 47 | 202 | 0.0 | 0.0 | 0.06 | 0.14 | 0.03 | 99 | 1010.4 |
| 20260505022459 | 47 | 201 | 0.0 | 1.0 | 0.04 | 0.13 | 0.03 | 99 | 1010.5 |
| 20260505022256 | 47 | 236 | 0.0 | 0.0 | 0.04 | 0.13 | 0.03 | 99 | 1010.6 |
| 20260505022049 | 47 | 236 | 0.0 | 0.0 | 0.04 | 0.13 | 0.03 | 99 | 1010.5 |
| 20260505021514 | 47 | 236 | 0.0 | 0.0 | 0.03 | 0.12 | 0.02 | 99 | 1010.7 |
| 20260505021307 | 47 | 237 | 0.0 | 0.0 | 0.03 | 0.12 | 0.02 | 99 | 1010.7 |
| 20260505021106 | 47 | 236 | 0.0 | 0.0 | 0.03 | 0.12 | 0.02 | 99 | 1010.7 |
| 20260505020902 | 47 | 236 | 0.0 | 0.0 | 0.03 | 0.12 | 0.02 | 99 | 1010.8 |
| 20260505020701 | 47 | 237 | 0.0 | 0.0 | 0.00 | 0.11 | 0.01 | 99 | 1010.8 |
| 20260505020455 | 47 | 236 | 0.0 | 0.0 | 0.00 | 0.11 | 0.01 | 99 | 1010.8 |
| 20260505020247 | 47 | 236 | 0.0 | 0.0 | 0.00 | 0.11 | 0.01 | 99 | 1010.8 |
| 20260505015359 | 47 | 236 | 0.0 | 0.0 | 0.00 | 0.11 | 0.01 | 99 | 1010.8 |
| 20260505014833 | 47 | 236 | 0.0 | 5.0 | 0.00 | 0.11 | 0.00 | 99 | 1011.0 |
| 20260505014310 | 47 | 129 | 0.0 | 0.0 | 0.00 | 0.11 | 0.00 | 99 | 1011.0 |
| 20260505014110 | 47 | 129 | 0.0 | 0.0 | 0.00 | 0.11 | 0.00 | 99 | 1011.0 |
| 20260505013904 | 47 | 116 | 0.0 | 0.0 | 0.00 | 0.11 | 0.00 | 99 | 1011.0 |
| 20260505013703 | 47 | 116 | 0.0 | 1.0 | 0.00 | 0.11 | 0.00 | 99 | 1011.0 |
| 20260505013501 | 47 | 116 | 0.0 | 0.0 | 0.00 | 0.11 | 0.00 | 99 | 1011.0 |
| 20260505013300 | 47 | 106 | 0.0 | 0.0 | 0.00 | 0.11 | 0.00 | 99 | 1011.0 |
| 20260505013056 | 47 | 106 | 0.0 | 0.0 | 0.00 | 0.11 | 0.00 | 99 | 1011.0 |
| 20260505012855 | 47 | 106 | 0.0 | 0.0 | 0.00 | 0.11 | 0.00 | 99 | 1010.9 |
| 20260505012655 | 47 | 106 | 0.0 | 0.0 | 0.00 | 0.11 | 0.00 | 99 | 1010.9 |
| 20260505012455 | 47 | 99 | 0.0 | 0.0 | 0.00 | 0.11 | 0.00 | 99 | 1010.8 |
| 20260505012256 | 47 | 99 | 0.0 | 1.0 | 0.00 | 0.11 | 0.00 | 99 | 1010.6 |
| 20260505012052 | 48 | 89 | 0.0 | 0.0 | 0.00 | 0.11 | 0.00 | 100 | 1010.6 |
| 20260505011211 | 48 | 81 | 0.0 | 0.0 | 0.00 | 0.11 | 0.00 | 100 | 1010.7 |
| 20260505011005 | 48 | 81 | 0.0 | 0.0 | 0.00 | 0.11 | 0.00 | 100 | 1010.7 |
| 20260505010133 | 48 | 79 | 0.0 | 3.0 | 0.00 | 0.10 | 0.00 | 100 | 1010.8 |
| 20260505005923 | 47 | 79 | 0.0 | 3.0 | 0.00 | 0.10 | 0.00 | 100 | 1010.8 |
| 20260505005352 | 48 | 83 | 1.0 | 3.0 | 0.00 | 0.10 | 0.00 | 100 | 1010.9 |
| 20260505005146 | 48 | 62 | 1.0 | 3.0 | 0.00 | 0.10 | 0.00 | 100 | 1010.9 |
| 20260505004613 | 48 | 79 | 1.0 | 3.0 | 0.00 | 0.10 | 0.00 | 100 | 1011.0 |
| 20260505004408 | 47 | 71 | 1.0 | 3.0 | 0.00 | 0.10 | 0.00 | 100 | 1011.0 |
| 20260505004206 | 47 | 53 | 1.0 | 5.0 | 0.00 | 0.10 | 0.00 | 100 | 1011.1 |
| 20260505004006 | 47 | 67 | 1.0 | 5.0 | 0.00 | 0.10 | 0.00 | 100 | 1011.0 |
| 20260505003801 | 47 | 41 | 1.0 | 5.0 | 0.00 | 0.10 | 0.00 | 100 | 1011.1 |
| 20260505003551 | 47 | 103 | 1.0 | 5.0 | 0.00 | 0.10 | 0.00 | 100 | 1011.2 |
| 20260505003025 | 47 | 59 | 2.0 | 5.0 | 0.00 | 0.10 | 0.00 | 100 | 1011.2 |
| 20260505002822 | 47 | 80 | 2.0 | 5.0 | 0.00 | 0.10 | 0.00 | 100 | 1011.2 |
| 20260505002620 | 47 | 103 | 1.0 | 5.0 | 0.00 | 0.10 | 0.00 | 100 | 1011.2 |
| 20260505002416 | 47 | 84 | 1.0 | 5.0 | 0.00 | 0.10 | 0.00 | 100 | 1011.2 |
| 20260505002210 | 47 | 47 | 1.0 | 4.0 | 0.00 | 0.10 | 0.00 | 100 | 1011.1 |
| 20260505002009 | 47 | 58 | 1.0 | 4.0 | 0.00 | 0.10 | 0.00 | 100 | 1011.1 |
| 20260505001444 | 47 | 56 | 1.0 | 4.0 | 0.00 | 0.10 | 0.00 | 100 | 1011.3 |
| 20260505001235 | 47 | 62 | 1.0 | 4.0 | 0.00 | 0.10 | 0.00 | 100 | 1011.3 |
| 20260505000701 | 47 | 94 | 1.0 | 4.0 | 0.00 | 0.10 | 0.00 | 100 | 1011.3 |
| 20260505000456 | 47 | 65 | 2.0 | 4.0 | 0.00 | 0.10 | 0.00 | 100 | 1011.3 |
| 20260505000250 | 47 | 53 | 2.0 | 4.0 | 0.00 | 0.10 | 0.00 | 100 | 1011.3 |
| 20260505000041 | 47 | 107 | 2.0 | 4.0 | 0.00 | 0.10 | 0.00 | 99 | 1011.4 |
| 20260504235831 | 47 | 81 | 2.0 | 4.0 | 0.00 | 0.10 | 0.00 | 100 | 1011.4 |
| 20260504235625 | 47 | 95 | 1.0 | 4.0 | 0.00 | 0.10 | 0.00 | 99 | 1011.4 |
| 20260504235104 | 47 | 89 | 1.0 | 4.0 | 0.00 | 0.10 | 0.00 | 99 | 1011.4 |
| 20260504234903 | 47 | 102 | 1.0 | 4.0 | 0.00 | 0.10 | 0.00 | 99 | 1011.4 |
| 20260504234658 | 47 | 90 | 1.0 | 4.0 | 0.00 | 0.10 | 0.00 | 99 | 1011.5 |
| 20260504234133 | 47 | 58 | 2.0 | 7.0 | 0.00 | 0.10 | 0.00 | 99 | 1011.5 |
| 20260504233927 | 47 | 118 | 2.0 | 7.0 | 0.00 | 0.10 | 0.00 | 99 | 1011.5 |
| 20260504233722 | 47 | 120 | 2.0 | 7.0 | 0.00 | 0.10 | 0.00 | 99 | 1011.6 |